Temperature
9 7 6 7 7 9 8 8 8 8 9 9 8 8 8 9 9 9 9 9 9 9 9 9 9 9 9 9 9 9 8 8 8 8 8 8 8 8 8 8 8 8 8 8
6 6 7 8 8 8 8 8 8 8 8 8 7 7 8 8 8 9 9 9 8 9 8 9 9 9 9 8 8 8 8 8 8 8 8 8 8 7 7 7 7 7 7 7
7 7 8 8 8 8 8 7 7 7 7 7 7 7 7 8 8 9 9 9 8 8 8 8 8 8 8 8 8 8 8 8 7 7 7 7 7 7 7 7 7 7 7 7
7 7 8 8 7 7 7 7 7 7 6 5 6 6 6 7 7 7 7 8 8 8 8 8 8 8 8 8 8 7 7 7 7 7 7 7 6 6 6 6 6 6 6 6
6 7 7 7 7 7 7 7 7 7 6 5 5 5 6 6 6 6 7 7 7 7 7 7 7 7 8 7 7 7 7 7 7 6 6 6 6 6 6 6 6 6 6 6
6 7 7 7 7 7 7 6 6 4 4 5 5 5 6 5 6 6 6 7 7 7 7 7 7 7 7 7 7 6 6 6 6 6 6 6 6 6 5 5 5 5 5 5
5 6 6 6 6 6 6 5 4 4 4 4 5 5 5 6 6 6 6 6 7 7 7 6 6 6 6 6 6 6 6 6 6 6 6 5 5 5 5 5 5 5 5 5
4 5 5 5 6 5 5 5 5 5 4 4 4 4 5 5 5 6 6 6 6 6 6 6 6 6 6 6 5 5 5 5 5 5 5 5 5 5 5 5 5 4 4 4
4 4 5 5 6 6 5 4 5 4 3 4 4 4 5 5 5 4 5 5 5 5 5 5 5 5 5 5 5 5 5 5 5 5 5 5 5 4 4 4 4 4 4 4
3 3 4 4 5 5 5 4 3 3 4 5 5 4 5 5 4 4 3 4 5 5 5 5 5 5 5 5 4 4 4 4 4 4 4 4 4 4 4 4 4 4 3 3
3 3 3 3 4 4 4 4 3 3 3 4 4 5 5 5 4 4 3 4 4 5 5 4 4 4 4 4 4 4 4 4 4 4 4 4 4 4 4 4 3 3 3 3
2 1 1 2 3 4 3 3 3 3 3 2 3 4 5 4 4 4 4 4 4 4 4 4 4 4 3 3 3 3 3 3 3 3 3 3 3 3 3 3 3 3 2 2
2 1 2 2 3 2 3 3 2 2 2 2 3 4 4 3 4 4 4 4 4 4 4 4 3 3 3 3 3 3 3 3 3 3 3 3 3 3 3 3 3 2 2 2
2 0 1 3 3 2 1 2 2 2 2 2 3 4 4 3 3 3 3 4 4 4 3 3 3 3 3 2 2 2 2 2 2 2 2 2 2 2 2 2 2 2 2 2
1 -0 -0 1 1 1 1 2 1 2 2 2 3 3 4 3 3 3 3 3 3 3 3 3 3 3 2 2 2 2 2 2 2 2 2 2 2 2 2 2 1 1 1 1
-0 -1 -1 -0 1 1 1 2 2 2 2 2 2 3 4 3 3 3 3 3 3 3 3 3 2 2 2 2 2 1 1 1 1 1 1 1 1 1 1 1 1 1 1 1
-1 -1 -1 0 0 1 1 1 2 1 1 2 2 3 3 2 2 2 3 3 3 2 3 2 2 2 2 2 1 1 1 1 1 1 1 1 1 1 1 1 1 0 0 0
-2 -1 -1 -1 -0 1 2 1 2 2 2 2 2 2 2 2 3 3 3 3 3 3 2 2 2 2 2 1 1 1 1 1 1 1 1 0 0 0 0 0 0 0 -0 -0
-2 -1 -1 -1 -0 0 1 1 1 1 1 1 1 2 1 2 2 2 3 3 3 3 2 2 2 2 1 1 1 1 1 1 1 0 0 0 0 0 -0 -0 -0 -0 -0 -1
-2 -2 -1 -1 -0 0 2 1 1 1 1 1 1 1 1 1 0 1 2 2 2 2 2 2 1 1 1 1 1 0 0 0 0 0 0 -0 -0 -0 -0 -1 -1 -1 -1 -1
-3 -2 -2 -1 -1 -0 0 0 1 1 1 1 1 1 1 1 1 2 2 2 2 2 1 1 1 1 1 0 0 -0 -0 -0 -0 -0 -0 -1 -1 -1 -1 -1 -1 -1 -2 -2
-2 -3 -3 -2 -1 -0 0 -0 -0 1 1 1 1 1 1 1 1 1 1 1 1 1 1 1 0 0 0 0 -0 -0 -0 -0 -0 -0 -1 -1 -1 -1 -1 -2 -2 -2 -2 -2
-3 -2 -2 -2 -0 -0 0 0 1 1 1 1 1 2 1 1 1 1 1 1 1 1 1 0 -0 -0 -0 -0 -1 -1 -1 -1 -1 -1 -1 -1 -2 -2 -2 -2 -2 -2 -2 -3
-3 -3 -3 -3 -2 -1 -0 0 1 1 1 1 1 1 1 1 1 0 0 0 0 0 -0 -0 -1 -1 -1 -1 -1 -1 -1 -1 -1 -1 -1 -2 -2 -2 -2 -3 -3 -3 -3 -3
-3 -4 -4 -3 -2 -1 -0 0 0 1 1 1 1 1 1 1 0 0 0 -0 -0 -0 -1 -1 -1 -1 -1 -1 -2 -2 -2 -2 -2 -2 -2 -2 -2 -3 -3 -3 -3 -3 -3 -3
-3 -3 -3 -2 -1 -2 -1 0 0 -0 -0 -0 0 0 0 0 0 -0 -0 -0 -1 -1 -1 -1 -1 -2 -2 -2 -2 -2 -2 -2 -2 -2 -2 -3 -3 -3 -3 -3 -4 -4 -4 -4
Wind_Speed
2 2 5 8 8 6 4 5 7 7 4 4 9 11 10 8 6 7 7 7 7 7 5 4 5 4 4 4 3 4 3 3 3 3 3 2 2 1 1 1 1 2 2 2
2 6 9 6 5 5 5 6 7 6 3 4 7 11 10 9 8 9 9 9 8 6 4 4 4 4 5 5 4 3 3 3 3 4 3 2 2 2 2 1 0 1 2 2
7 6 5 5 4 5 7 7 6 5 4 3 3 8 7 6 5 6 6 7 7 7 7 6 5 5 5 5 5 5 4 4 3 3 2 2 1 0 0 1 1 1 2 3
5 5 3 4 5 6 8 6 6 4 2 4 2 6 8 6 5 6 6 6 6 6 6 5 5 5 5 6 5 5 4 4 3 3 4 4 3 3 3 2 2 1 2 2
5 3 4 6 6 6 6 2 3 3 3 4 3 5 8 4 6 8 8 7 6 6 6 6 6 6 5 4 5 4 4 4 4 4 5 5 4 3 2 1 1 1 1 1
5 3 3 5 2 3 2 2 3 2 1 5 7 7 7 6 9 8 7 7 6 5 5 4 3 3 2 2 3 3 3 3 3 4 4 5 5 4 3 3 2 2 1 1
4 4 2 1 1 1 3 3 1 2 2 7 4 6 9 7 6 7 8 7 6 5 5 4 3 3 2 3 3 3 4 3 3 4 4 4 5 5 5 4 4 3 2 1
3 6 4 3 4 4 5 6 6 5 5 5 3 7 7 5 3 2 3 5 4 4 5 5 5 5 4 3 3 3 3 3 3 4 4 4 4 4 4 4 4 4 3 3
4 6 2 2 2 5 4 5 4 2 1 3 6 6 7 2 1 0 1 2 4 5 5 5 4 4 3 3 3 3 3 3 3 3 4 4 4 4 4 4 3 3 2 2
3 4 4 2 1 1 3 5 3 3 3 5 6 5 5 6 6 4 3 4 4 4 4 4 4 3 2 2 1 1 2 3 3 3 3 2 3 3 4 3 3 3 2 2
1 3 3 1 5 6 3 3 4 4 4 4 5 7 5 7 7 7 7 6 5 5 5 4 3 2 2 1 1 1 1 1 1 2 2 2 2 2 3 3 3 2 2 2
2 2 4 6 4 4 5 6 6 5 5 5 4 8 4 4 5 6 6 5 4 4 4 3 3 2 2 1 1 1 0 1 1 2 2 2 2 2 2 2 2 2 2 2
2 2 2 4 2 1 3 4 5 3 3 5 6 8 3 2 1 3 4 3 3 3 3 2 3 3 2 2 1 1 0 1 1 2 2 2 2 2 2 2 2 2 2 2
2 4 6 8 6 4 5 6 6 5 5 7 10 11 8 4 4 4 3 4 4 4 4 4 3 3 2 2 2 1 1 1 2 2 2 2 2 2 2 2 2 2 2 2
3 4 5 8 8 5 7 9 8 10 10 10 11 13 13 8 7 5 4 4 4 4 4 5 4 3 2 2 2 1 1 1 2 2 2 1 1 2 2 1 1 1 1 1
3 3 3 6 6 7 9 10 11 11 10 12 12 15 10 5 4 4 4 5 5 5 5 5 4 4 4 3 3 2 1 1 2 2 2 1 1 1 1 1 1 1 1 1
4 4 2 5 5 4 7 9 10 7 7 8 12 14 5 4 6 7 7 7 7 6 5 5 5 5 4 4 3 3 3 1 2 2 1 1 2 1 1 1 1 1 1 1
5 4 3 2 0 6 7 3 6 8 8 9 9 8 6 6 5 5 5 6 6 5 5 5 4 4 3 3 3 3 2 2 2 2 2 1 1 1 1 1 0 1 1 1
5 5 3 2 4 7 7 4 3 5 7 6 9 8 4 1 2 4 4 4 5 6 5 4 4 3 3 3 3 2 2 2 2 3 2 2 2 1 1 0 1 1 1 1
1 3 4 3 3 6 6 4 1 2 5 5 5 6 3 2 2 5 3 2 2 2 2 2 2 2 3 2 2 3 2 2 3 3 3 2 2 2 2 1 1 1 1 1
0 1 4 5 5 7 6 3 2 2 6 5 3 4 4 4 5 3 2 1 1 2 2 2 2 2 2 2 3 2 2 2 2 2 2 2 2 2 2 1 1 1 1 1
5 4 4 3 4 7 3 2 3 6 5 4 4 4 4 3 2 2 2 2 2 1 2 2 2 1 1 2 3 2 2 2 1 2 2 2 1 1 1 1 1 1 1 0
6 7 5 7 7 5 4 6 6 5 6 6 4 4 3 2 3 2 2 2 1 1 1 2 3 2 0 1 2 2 2 1 1 1 2 1 1 1 1 1 1 1 0 1
4 3 4 5 8 8 7 6 5 5 6 6 5 4 3 3 4 3 2 2 1 1 1 2 2 2 1 0 0 1 1 1 1 2 2 1 1 1 0 1 1 1 1 1
6 4 4 7 8 7 6 6 7 6 5 5 4 4 4 4 4 4 3 3 2 1 1 2 2 2 2 1 0 1 1 1 1 1 1 1 1 1 1 0 1 2 3 3
4 6 6 8 8 6 7 6 5 5 6 5 4 3 2 3 4 3 3 2 2 2 2 2 2 2 1 1 1 1 1 2 2 1 1 1 1 1 1 1 1 2 2 3
Wind_Direction
125 111 208 217 211 219 215 218 245 252 252 236 243 254 258 253 235 231 227 220 214 214 215 190 179 170 159 158 160 167 164 175 164 166 169 177 196 200 199 169 191 185 184 174
75 235 231 220 221 235 238 248 257 273 271 243 260 267 260 246 231 225 222 218 212 208 201 192 181 173 175 176 177 178 179 183 180 185 186 188 188 200 203 177 178 187 185 187
202 234 225 207 225 235 244 232 241 255 308 306 301 291 258 253 238 232 224 215 201 192 193 195 187 190 186 184 188 190 191 187 187 180 162 137 101 72 220 228 229 227 202 202
234 246 220 215 228 211 247 232 232 245 259 269 196 274 268 245 245 233 226 215 208 203 195 191 188 192 197 197 192 192 193 189 188 175 168 168 178 204 223 220 224 230 211 198
245 225 214 228 231 204 231 232 224 237 219 274 228 230 274 244 240 238 228 219 212 202 192 192 195 197 199 190 186 192 190 190 186 179 179 181 192 207 202 198 205 223 214 190
250 261 224 225 240 199 171 53 27 40 106 257 225 207 266 225 221 228 222 217 207 197 188 187 187 178 179 176 178 177 177 193 192 188 186 188 193 191 187 200 206 217 220 198
286 274 263 154 91 38 106 104 360 315 273 247 220 213 248 240 227 216 214 211 202 191 181 176 176 175 181 178 178 176 176 194 197 193 195 197 196 191 197 203 206 202 202 216
230 267 235 204 189 192 200 173 186 217 234 269 254 231 251 252 256 230 206 196 184 188 186 185 190 190 192 191 183 178 182 199 203 198 199 199 194 193 201 204 202 201 203 212
207 248 278 236 226 168 176 207 194 173 255 262 255 270 291 245 258 229 177 175 194 196 192 193 193 190 188 191 202 191 188 206 215 204 192 192 193 193 193 197 195 193 196 198
175 253 267 279 27 242 178 158 132 172 212 252 268 253 242 233 232 230 222 216 216 204 195 193 191 191 188 191 211 193 192 215 221 195 188 183 190 192 184 178 181 184 187 183
166 209 279 250 204 209 175 185 184 187 199 205 259 265 232 216 212 213 217 213 206 201 194 192 192 187 178 156 152 169 187 201 182 172 167 158 162 166 164 169 176 175 175 174
167 159 249 248 250 229 207 203 180 195 229 212 232 267 277 237 218 208 214 212 203 197 194 186 179 171 169 167 187 182 173 163 161 149 143 151 148 145 154 167 177 168 179 185
149 157 308 324 312 290 227 213 201 197 196 205 220 260 307 354 244 210 209 208 198 190 186 178 170 177 189 193 206 208 207 181 153 135 129 129 135 147 161 175 179 169 175 179
151 190 210 228 240 210 242 243 220 202 224 234 235 254 279 283 270 260 229 212 202 192 189 185 186 198 201 204 206 201 218 170 143 135 132 142 160 163 170 176 175 173 173 185
145 219 241 264 270 244 244 246 229 222 224 229 248 251 259 250 240 238 224 207 196 197 196 197 196 209 209 212 218 206 205 163 140 140 149 179 176 155 153 167 173 162 179 197
165 213 246 275 272 257 265 256 238 235 235 241 255 265 265 255 233 233 223 204 205 212 212 210 208 204 205 210 209 205 206 208 171 159 176 179 151 145 153 172 165 161 213 213
183 176 207 262 289 302 268 242 225 222 221 217 240 252 254 251 234 224 222 211 208 217 220 216 214 212 210 208 199 203 203 209 190 180 180 173 158 148 163 172 152 193 231 216
181 175 196 248 318 238 251 245 216 223 242 232 243 257 242 235 242 240 223 206 213 216 218 221 218 215 209 195 191 191 183 188 185 176 178 170 155 159 144 139 182 237 234 228
194 177 192 203 233 269 292 277 215 214 261 248 245 258 265 260 355 293 240 208 210 213 213 214 208 199 187 185 178 166 170 176 171 181 193 191 182 180 182 207 267 272 254 261
80 175 189 200 220 241 265 284 274 138 284 285 247 246 236 152 238 260 245 209 210 203 195 190 173 161 170 184 161 152 174 180 190 198 203 198 188 185 205 226 247 259 246 264
101 203 212 221 234 259 272 294 96 167 268 300 253 227 215 216 228 228 211 216 200 189 175 156 155 171 187 172 151 164 190 220 222 195 189 196 196 200 213 224 239 242 259 299
186 189 209 198 221 254 268 118 192 247 285 287 266 244 230 231 217 194 195 194 173 166 159 146 147 164 178 154 153 179 227 247 223 177 176 192 201 209 196 181 238 242 209 243
206 201 201 205 227 261 228 229 251 260 271 272 258 253 221 216 221 214 210 205 188 167 163 143 145 142 108 141 159 191 236 235 187 146 153 168 183 188 174 185 203 237 238 242
253 224 214 252 264 270 267 266 277 270 265 266 254 245 217 221 218 220 211 204 194 175 164 148 141 152 191 230 166 208 227 215 168 164 162 162 167 168 175 206 203 211 226 238
231 204 225 255 275 292 280 264 271 285 282 278 277 249 213 195 214 217 209 202 197 199 178 155 162 180 212 223 232 233 210 185 178 174 168 167 173 177 196 261 247 237 240 236
217 210 218 246 253 253 273 278 277 281 284 279 272 273 235 192 200 199 199 202 188 186 172 160 167 184 218 233 251 249 209 181 184 183 187 191 187 193 202 245 316 308 273 286
Height
1502 1507 1508 1506 1505 1504 1505 1507 1507 1504 1500 1502 1500 1497 1494 1492 1492 1492 1491 1491 1491 1492 1494 1495 1495 1496 1497 1498 1499 1499 1500 1501 1502 1503 1503 1504 1504 1505 1506 1507 1507 1508 1508 1508
1506 1506 1501 1501 1503 1504 1504 1506 1505 1502 1500 1500 1499 1495 1490 1488 1487 1487 1487 1487 1487 1489 1490 1491 1492 1493 1493 1494 1495 1496 1497 1498 1499 1500 1500 1501 1502 1502 1503 1503 1504 1505 1505 1506
1502 1500 1497 1499 1501 1503 1503 1505 1503 1502 1500 1499 1500 1495 1488 1483 1483 1483 1483 1483 1483 1484 1485 1486 1487 1489 1489 1490 1491 1492 1493 1494 1495 1496 1497 1498 1499 1499 1500 1500 1501 1501 1502 1502
1499 1497 1496 1497 1499 1499 1502 1499 1500 1500 1504 1506 1503 1503 1487 1482 1481 1480 1480 1479 1480 1481 1482 1483 1484 1485 1486 1487 1488 1489 1490 1491 1492 1493 1493 1494 1494 1495 1496 1497 1497 1498 1499 1499
1498 1495 1495 1496 1495 1496 1497 1496 1498 1499 1503 1507 1503 1505 1489 1482 1480 1477 1476 1476 1476 1477 1478 1479 1480 1481 1482 1483 1484 1486 1487 1487 1488 1489 1490 1491 1491 1492 1493 1494 1494 1495 1495 1496
1496 1494 1493 1493 1492 1494 1495 1498 1501 1505 1507 1508 1499 1501 1488 1481 1474 1471 1471 1472 1472 1474 1475 1476 1478 1478 1479 1480 1481 1482 1483 1483 1484 1485 1486 1487 1488 1488 1489 1490 1491 1492 1492 1493
1497 1494 1492 1492 1494 1495 1496 1503 1510 1510 1513 1503 1494 1495 1482 1471 1467 1466 1467 1468 1469 1470 1472 1473 1474 1475 1476 1476 1477 1478 1479 1480 1481 1481 1482 1483 1484 1485 1486 1486 1487 1488 1488 1489
1500 1498 1491 1490 1491 1494 1496 1499 1506 1507 1507 1499 1494 1490 1475 1467 1465 1464 1465 1465 1466 1468 1469 1470 1471 1472 1473 1474 1474 1475 1475 1476 1477 1478 1478 1479 1480 1481 1482 1483 1484 1485 1485 1486
1498 1495 1490 1488 1488 1490 1494 1498 1497 1503 1505 1503 1492 1484 1472 1465 1465 1464 1464 1464 1464 1465 1467 1468 1469 1470 1471 1471 1472 1472 1472 1473 1473 1474 1475 1476 1477 1478 1479 1480 1480 1481 1482 1483
1495 1498 1491 1489 1488 1489 1491 1493 1501 1502 1500 1495 1487 1484 1474 1466 1464 1463 1463 1462 1462 1464 1465 1466 1467 1468 1469 1469 1470 1470 1470 1470 1470 1471 1472 1472 1473 1474 1475 1476 1477 1478 1478 1479
1494 1497 1494 1491 1489 1489 1492 1494 1495 1498 1498 1495 1492 1478 1462 1460 1459 1460 1460 1460 1461 1462 1463 1464 1465 1466 1467 1467 1467 1467 1467 1467 1467 1468 1469 1469 1470 1471 1472 1472 1473 1474 1475 1476
1493 1498 1497 1491 1486 1485 1487 1488 1492 1494 1494 1494 1490 1476 1458 1457 1456 1457 1458 1459 1460 1461 1462 1463 1464 1465 1465 1465 1465 1465 1464 1465 1465 1466 1466 1467 1467 1468 1468 1469 1470 1471 1472 1473
1493 1498 1497 1491 1491 1488 1487 1485 1487 1489 1491 1492 1488 1472 1458 1456 1455 1456 1457 1458 1458 1460 1461 1461 1462 1462 1463 1463 1462 1462 1462 1462 1463 1463 1464 1464 1465 1465 1465 1466 1467 1467 1468 1469
1490 1494 1494 1488 1482 1484 1486 1484 1483 1486 1487 1484 1477 1466 1459 1457 1457 1456 1456 1456 1457 1458 1459 1459 1460 1460 1461 1461 1460 1460 1460 1461 1461 1461 1462 1462 1462 1463 1463 1463 1464 1464 1465 1466
1489 1492 1491 1486 1482 1481 1480 1478 1479 1479 1476 1476 1467 1463 1454 1455 1455 1455 1454 1455 1455 1456 1457 1457 1458 1458 1458 1458 1458 1458 1458 1459 1459 1459 1459 1460 1460 1461 1461 1461 1461 1462 1462 1463
1487 1490 1490 1486 1479 1478 1475 1471 1471 1471 1470 1467 1463 1457 1450 1451 1452 1453 1452 1452 1453 1453 1454 1454 1455 1456 1456 1456 1456 1456 1456 1457 1457 1457 1458 1458 1458 1458 1458 1459 1459 1459 1460 1460
1486 1489 1489 1484 1480 1476 1473 1465 1463 1464 1461 1461 1459 1451 1449 1450 1449 1449 1449 1450 1450 1450 1451 1451 1452 1452 1453 1453 1454 1454 1454 1455 1455 1455 1455 1456 1456 1456 1456 1457 1457 1457 1457 1458
1483 1484 1486 1484 1482 1477 1462 1456 1455 1455 1454 1453 1450 1447 1446 1446 1446 1446 1446 1447 1447 1448 1449 1449 1449 1450 1450 1451 1451 1451 1452 1452 1452 1452 1453 1453 1454 1454 1454 1454 1454 1454 1455 1455
1477 1480 1483 1483 1479 1469 1459 1455 1454 1455 1452 1448 1447 1445 1445 1445 1445 1445 1444 1445 1445 1445 1446 1446 1447 1447 1448 1448 1448 1448 1448 1449 1449 1450 1450 1451 1451 1451 1451 1451 1451 1452 1452 1452
1476 1477 1480 1480 1476 1470 1457 1452 1450 1453 1453 1445 1444 1443 1444 1444 1447 1444 1442 1443 1443 1443 1443 1444 1444 1445 1445 1445 1445 1445 1445 1446 1446 1447 1448 1448 1449 1449 1449 1449 1449 1449 1449 1449
1479 1478 1478 1476 1473 1464 1454 1451 1451 1457 1451 1443 1442 1441 1442 1442 1442 1441 1440 1440 1441 1441 1441 1442 1442 1442 1442 1442 1443 1443 1443 1443 1444 1444 1445 1446 1446 1446 1446 1446 1446 1446 1446 1446
1475 1477 1477 1476 1473 1464 1451 1451 1453 1449 1444 1441 1440 1439 1439 1438 1438 1438 1438 1438 1438 1438 1439 1439 1439 1440 1440 1440 1440 1441 1441 1441 1441 1441 1442 1442 1443 1443 1443 1443 1443 1443 1443 1443
1469 1466 1466 1465 1459 1450 1448 1447 1445 1444 1442 1439 1438 1437 1436 1435 1435 1436 1436 1436 1436 1437 1437 1437 1437 1437 1438 1438 1439 1439 1439 1439 1438 1439 1439 1440 1441 1441 1441 1441 1440 1440 1441 1440
1462 1459 1460 1458 1450 1446 1444 1443 1441 1440 1438 1437 1436 1435 1434 1433 1433 1434 1434 1434 1434 1435 1435 1435 1435 1435 1436 1436 1437 1437 1437 1437 1437 1437 1437 1437 1438 1438 1438 1438 1438 1438 1438 1438
1457 1457 1456 1453 1447 1443 1439 1439 1438 1436 1435 1433 1432 1432 1432 1431 1432 1432 1432 1432 1433 1433 1433 1433 1433 1433 1434 1434 1435 1435 1435 1435 1435 1434 1435 1435 1436 1436 1436 1436 1436 1436 1437 1437
1451 1452 1452 1447 1442 1441 1437 1435 1435 1433 1431 1430 1429 1428 1429 1429 1429 1430 1430 1430 1431 1431 1431 1431 1431 1432 1432 1433 1433 1433 1433 1433 1433 1433 1433 1433 1433 1434 1434 1434 1434 1434 1435 1434